This is the latest recevied weather packets stored in our database for station/object W4FXD. If no packets are shown the sender has not sent any weather packets the latest 1 day(s).
| Time | Temp. | Humidity | Pressure | Rain* | Wind** | Luminosity | Snow |
|---|---|---|---|---|---|---|---|
| 1778096491 | 20° C | 94% | 1012.9 hPa | 0 mm | - | 160 W/m² | - |
| 1778094066 | 20.56° C | 91% | 1012 hPa | 0 mm | - | 173 W/m² | - |
| 1778093763 | 20.56° C | 90% | 1012.4 hPa | 0 mm | - | 146 W/m² | - |
| 1778091944 | 20.56° C | 91% | 1012.7 hPa | 0 mm | - | 125 W/m² | - |
| 1778089216 | 20° C | 92% | 1013.2 hPa | 0 mm | - | 425 W/m² | - |
| 1778088914 | 20° C | 93% | 1012.9 hPa | 0 mm | - | 299 W/m² | - |
| 1778088004 | 20° C | 94% | 1012.1 hPa | 0 mm | - | 296 W/m² | - |
| 1778087096 | 19.44° C | 95% | 1012.4 hPa | 0 mm | - | 287 W/m² | - |
| 1778085885 | 18.33° C | 98% | 1012.7 hPa | 0 mm | - | 301 W/m² | - |
| 1778085583 | 18.33° C | 98% | 1012.7 hPa | 0 mm | - | 206 W/m² | - |
| 1778084368 | 18.33° C | 99% | 1012.7 hPa | 0 mm | - | 242 W/m² | - |
| 1778081434 | 17.22° C | 99% | 1013 hPa | 0 mm | - | 72 W/m² | - |
| 1778079920 | 16.67° C | 99% | 1012.7 hPa | 1.27 mm | - | 92 W/m² | - |
| 1778077196 | 16.67° C | 99% | 1013.1 hPa | 4.32 mm | - | 37 W/m² | - |
| 1778076894 | 16.67° C | 99% | 1012.8 hPa | 6.1 mm | - | 24 W/m² | - |
| 1778076289 | 16.67° C | 99% | 1012.6 hPa | 4.83 mm | - | 19 W/m² | - |
| 1778075985 | 16.67° C | 99% | 1012.8 hPa | 3.05 mm | - | 22 W/m² | - |
| 1778075683 | 16.67° C | 99% | 1012.8 hPa | 3.05 mm | - | 31 W/m² | - |
| 1778075075 | 16.67° C | 99% | 1012.8 hPa | 4.83 mm | - | 35 W/m² | - |
| 1778074772 | 16.67° C | 99% | 1012.3 hPa | 4.83 mm | - | 39 W/m² | - |
| 1778074166 | 16.67° C | 99% | 1011.9 hPa | 1.78 mm | - | 35 W/m² | - |
| 1778073863 | 16.67° C | 99% | 1011.9 hPa | 3.05 mm | - | 39 W/m² | - |
| 1778072650 | 16.67° C | 99% | 1011.9 hPa | 4.32 mm | - | 32 W/m² | - |
| 1778071441 | 16.67° C | 99% | 1012.4 hPa | 6.6 mm | - | 7 W/m² | - |
| 1778071139 | 16.67° C | 99% | 1012.2 hPa | 4.32 mm | - | 8 W/m² | - |
* Rain latest hour (hover to see other rain measurements)
** Current wind speed in m/s (hover to see current wind gust speed)